Location: Willingham
(52.3167°N, 0.0667°E)
Time: 05:25:51
(UTC+00:00)

SAR-Lupe-2 - Pass Details

Date: 19 May 2025
Orbit: 478 x 487 km, 98.1° (Epoch: 16 May)

Event Time Altitude Azimuth Distance (km) Brightness Sun altitude
Exits shadow 20:57:49 - 169° (S) 1,880 6.0 -8.0°
Reaches altitude 10° 20:58:22 10° 170° (S) 1,653 5.7 -8.0°
Maximum altitude 21:01:54 74° 255° (WSW) 506 3.7 -8.4°
Drops below altitude 10° 21:05:29 10° 342° (NNW) 1,670 7.5 -8.7°
Sets 21:07:34 0° 344° (NNW) 2,556 8.6 -8.9°
